Location: Boursonne
(49.2024°N, 3.0468°E)
Time: 22:41:26
(UTC+00:00)

Cosmos 2219 Rocket - Pass Details

Date: 03 March 2021
Orbit: 826 x 848 km, 71.0° (Epoch: 20 April)

Event Time Altitude Azimuth Distance (km) Brightness Sun altitude
Rises 21:07:31 0° 233° (SW) 3,360 5.5 -34.1°
Reaches altitude 10° 21:10:06 10° 242° (WSW) 2,432 4.8 -34.4°
Maximum altitude 21:15:16 38° 310° (NW) 1,260 3.4 -35.1°
Drops below altitude 10° 21:20:29 10° 17° (NNE) 2,456 4.8 -35.8°
Sets 21:23:08 0° 26° (NNE) 3,398 5.5 -36.1°
